Location: Utrecht
(52.0917°N, 5.1178°E)
Time: 22:44:46
(UTC+02:00)

ISS - Visible Passes

Search period start: 25 May 2018 00:00
Search period end: 04 June 2018 00:00
Orbit: 402 x 407 km, 51.6° (Epoch: 26 May)

Date Brightness Start Highest point End Pass type
(mag) Time Alt. Az. Time Alt. Az. Time Alt. Az.
25 May -4.0 00:28:43 10° W 00:32:00 85° S 00:35:17 10° E visible
25 May -3.7 02:05:13 10° W 02:08:17 48° SSW 02:08:17 48° SSW visible
25 May -3.9 23:36:32 10° W 23:39:49 82° S 23:43:06 10° E visible
26 May -3.9 01:13:01 10° W 01:16:16 64° SSW 01:17:14 39° SE visible
26 May -1.3 02:49:49 10° W 02:49:51 10° W 02:49:51 10° W visible
26 May -3.9 22:44:22 10° WSW 22:47:38 73° SSE 22:50:55 10° E visible
27 May -4.0 00:20:49 10° W 00:24:06 77° S 00:26:26 18° ESE visible
27 May -2.3 01:57:24 10° W 01:59:03 22° WSW 01:59:03 22° WSW visible
27 May -3.9 23:28:36 10° W 23:31:54 84° S 23:35:10 10° E visible
28 May -3.5 01:05:06 10° W 01:08:15 43° SSW 01:08:20 43° SSW visible
28 May -3.9 22:36:23 10° W 22:39:39 84° S 22:42:57 10° E visible
29 May -3.8 00:12:52 10° W 00:16:05 58° SSW 00:17:40 26° SE visible
29 May -1.4 01:49:47 10° W 01:50:19 13° WSW 01:50:19 13° WSW visible
29 May -3.9 23:20:37 10° W 23:23:53 73° S 23:27:03 11° ESE visible
30 May -2.6 00:57:15 10° W 00:59:41 26° SW 00:59:41 26° SW visible
30 May -3.8 22:28:21 10° W 22:31:39 82° S 22:34:55 10° E visible
31 May -3.2 00:04:53 10° W 00:07:58 38° SSW 00:09:06 28° SSE visible
31 May -3.6 23:12:35 10° W 23:15:47 53° SSW 23:18:31 13° ESE visible
01 Jun -1.7 00:49:41 10° WSW 00:51:09 15° SW 00:51:09 15° SW visible
01 Jun -2.4 23:57:00 10° W 23:59:42 23° SSW 00:00:36 21° S visible
02 Jun -2.9 23:04:34 10° W 23:07:34 34° SSW 23:10:05 13° SE visible
03 Jun -1.6 23:49:33 10° WSW 23:51:16 14° SW 23:52:13 12° SSW visible
